This is the latest recevied weather packets stored in our database for station/object OK1PNK-5. If no packets are shown the sender has not sent any weather packets the latest 10 day(s).
| Time | Temp. | Humidity | Pressure | Rain* | Wind** | Luminosity | Snow |
|---|---|---|---|---|---|---|---|
| 1777616543 | 5° C | 65% | 987.9 hPa | 0 mm | - | - | - |
| 1777615942 | 5° C | 65% | 987.9 hPa | 0 mm | - | - | - |
| 1777615343 | 4.44° C | 65% | 988 hPa | 0 mm | - | - | - |
| 1777614743 | 4.44° C | 64% | 987.9 hPa | 0 mm | - | - | - |
| 1777614143 | 4.44° C | 64% | 987.9 hPa | 0 mm | - | - | - |
| 1777613542 | 3.33° C | 62% | 987.7 hPa | 0 mm | - | - | - |
| 1777612942 | 3.33° C | 62% | 987.7 hPa | 0 mm | - | - | - |
| 1777612343 | 3.33° C | 62% | 987.7 hPa | 0 mm | - | - | - |
| 1777611742 | 3.33° C | 62% | 987.7 hPa | 0 mm | - | - | - |
| 1777611142 | 3.33° C | 62% | 987.7 hPa | 0 mm | - | - | - |
| 1777610542 | 3.33° C | 61% | 987.5 hPa | 0 mm | - | - | - |
| 1777609943 | 3.33° C | 61% | 987.4 hPa | 0 mm | - | - | - |
| 1777608743 | 3.33° C | 60% | 987.5 hPa | 0 mm | - | - | - |
| 1777608143 | 3.89° C | 60% | 987.5 hPa | 0 mm | - | - | - |
| 1777607543 | 3.89° C | 60% | 987.4 hPa | 0 mm | - | - | - |
| 1777606943 | 4.44° C | 58% | 987.3 hPa | 0 mm | - | - | - |
| 1777606343 | 4.44° C | 58% | 987.3 hPa | 0 mm | - | - | - |
| 1777605743 | 4.44° C | 58% | 987.3 hPa | 0 mm | - | - | - |
| 1777605143 | 4.44° C | 58% | 987.3 hPa | 0 mm | - | - | - |
| 1777604543 | 4.44° C | 58% | 987.3 hPa | 0 mm | - | - | - |
| 1777603943 | 4.44° C | 58% | 987.3 hPa | 0 mm | - | - | - |
| 1777603342 | 4.44° C | 57% | 987.3 hPa | 0 mm | - | - | - |
| 1777602743 | 4.44° C | 57% | 987.3 hPa | 0 mm | - | - | - |
| 1777602143 | 4.44° C | 56% | 987.2 hPa | 0 mm | - | - | - |
| 1777600943 | 5° C | 54% | 987.3 hPa | 0 mm | - | - | - |
* Rain latest hour (hover to see other rain measurements)
** Current wind speed in m/s (hover to see current wind gust speed)